Погода в Сунтаре

Погода в Сунтаре : погода сейчас, прогноз погоды и архив. Всё, что Вы хотите узнать о погоде в Сунтаре!

Хотите узнать прогноз погоды в Сунтаре? Тогда Вам сюда: Погода в Сунтаре

Поиск расширенной информации на нашем сайте:

Другие новости

Новости СМИ2

Главная страница сайта

Новости сайта

03.07.2017

Напоминаем, что на нашем специализированном сайте Метеоцентр.Азия вы можете получить высокодетализированные автоматические прогнозы погоды по пунктам России, СНГ и мира в авиационном формате (включающие направление и скорость ветра, видимость, явления погоды, количество и форму облачности, нижнюю и верхнюю границу облачности).

Рекомендуем: офисные блоки на выгодных условиях снять офис в бц K2 в Румянцево описание помещений на сайте

Погода в Сунтаре - сегодня

Время (UTC), дата Ветер
(°,м/с) 
Видим.   Явления Облачность Т
(°С)
Тd
(°С)
f(%) Тe
(°С)
Pmin
(гПа)
dP
(гПа)
Po
(мм)
O2
(г/м3)
Тmin Tmax R s Состояние
почвы
18 19.11.17 тихо ()   10 км  слаб. снег  10/0 средняя 
[As op]
-29.4 -30.5 90 -29  1021.1  -2.2  751  341           
21 19.11.17 тихо ()   20000 м  {снег}  6/0 верхняя 
[Ci fib]
-31.5 -33.3 84 -32  1018.7  -2.6  749  343           
00 20.11.17 тихо ()   20000 м  {снег}  4/0 средняя, верхняя 
[Ac trans|Ci fib]
-34.4 -36.2 83 -34  1016.7  -2.1  748  347  -34.4    0.3  31  равномерный
сухой снег
100% 
03 20.11.17 тихо ()   20000 м    8/0 средняя, верхняя 
[Ac trans|Ci fib]
-33 -34.8 84 -33  1015  -1.6  747  344  -34.9         
06 20.11.17 360 (С) 20000 м    8/0 средняя, верхняя 
[Ac trans|Ci fib]
-29.4 -31.1 85 -30  1013.8  -0.9  746  339           
09 20.11.17 340 (С) 20000 м    5/0 средняя 
[Ac trans]
-32.3 -34 85 -33  1013.8  -0.3  746  343           
12 20.11.17 тихо ()   20000 м    4/0 средняя 
[Ac trans]
-31.3 -33 85 -31  1013.7  746  341    -28.9       
15 20.11.17 тихо ()   20000 м    6/0 верхняя 
[Ci fib]
-33.8 -35.6 84 -34  1013.4  -0.5  745  345           
18 20.11.17 180 (Ю) 10 км  слаб. снег  10/0 верхняя 
[Cs]
-32.6 -34.2 86 -37  1013.1  -0.2  745  343           
21 20.11.17 170 (Ю) 10 км  слаб. снег  10/0 средняя, верхняя 
[Ac trans|Cs]
-28.4 -30.2 84 -29  1012.2  -0.6  745  337           
00 21.11.17 230 (ЮЗ) 20000 м  слаб. снег  10/0 средняя, верхняя 
[Ac trans|Cs]
-25.4 -27.2 85 -29  1011.7  -0.2  745  333  -34    0.4  31  равномерный
сухой снег
100% 
03 21.11.17 240 (ЮЗ) 4000 м  слаб. снег  10/0 средняя 
[As op]
-23.6 -25.5 84 -28  1011.4  -0.2  744  330           
06 21.11.17 250 (З) 20000 м  слаб. снег  10/0 средняя 
[As op]
-22.4 -24.2 85 -27  1011.9  0.6  745  329           
09 21.11.17 260 (З) 10 км  слаб. снег  10/0 средняя 
[As op]
-21.5 -23.3 85 -24  1012.7  0.9  746  328           
12 21.11.17 250 (З) 10 км  слаб. снег  10/0 средняя, верхняя 
[Ac trans|Cs]
-20.8 -22.7 85 -25  1013.5  0.8  746  327    -20.5  0.8     
15 21.11.17 260 (З) 10 км  слаб. снег  10/0 средняя, верхняя 
[Ac trans|Cs]
-20 -21.9 85 -24  1013.9  0.5  746  326           
18 21.11.17 250 (З) 4000 м  слаб. снег  10/0 средняя 
[As op]
-19.3 -21.2 85 -24  1014.1  0.2  747  325           
21 21.11.17 280 (З) 4000 м  слаб. снег  10/0 средняя 
[As op]
-18 -19.9 85 -22  1014.7  0.7  747  324           
00 22.11.17 270 (З) 4000 м  слаб. снег  10/0 средняя 
[As op]
-17 -18.9 85 -19  1015.6  748  323  -20.9    29  равномерный
сухой снег
100% 
03 22.11.17 280 (З) 4000 м  слаб. снег  10/0 средняя 
[As op]
-15.9 -17.2 90 -20  1016.2  0.6  748  322           
06 22.11.17 270 (З) 4000 м  слаб. снег  10/0 средняя 
[As op]
-15.3 -16.6 90 -19  1017  0.8  749  321           
09 22.11.17 280 (З) 4000 м  слаб. снег  10/0 средняя 
[As op]
-15.3 -16.6 90 -19  1018.2  1.2  750  321           
12 22.11.17 300 (СЗ) 4000 м  слаб. снег  10/0 средняя 
[As op]
-15 -16.3 90 -19  1019.3  1.1  751  321    -15  0.5     
15 22.11.17 340 (С) 4000 м  слаб. снег  10/0 средняя 
[As op]
-15.9 -17.2 90 -22  1021  1.6  752  323           
18 22.11.17 330 (СЗ) 4000 м  слаб. снег  10/0 средняя 
[As op]
-21.2 -22.4 90 -26  1023.6  2.2  754  331           
Время (UTC), дата Ветер
(°,м/с) 
Видим.   Явления Облачность Т
(°С)
Тd
(°С)
f(%) Тe
(°С)
Pmin
(гПа)
dP
(гПа)
Po
(мм)
O2
(г/м3)
Тmin Tmax R s Состояние
почвы

Для получения пояснительной информации подведите курсор к названию столбца.

ПОГОДА в Сунтаре - архив

Всё, что Вы хотите узнать о погоде в Сунтаре - удобно и подробно!

Выберите нужную дату (начиная с 1 января 2015* года) и нажмите кнопку "Найти".
Будут отображены архивные сводки погоды по пункту Сунтар, начиная с указанной даты.


Отображать данные в формате CSV (для использования в таблицах Excel)


Внимание! Наш архив погоды предназначен исключительно для личного некоммерческого использования в познавательных целях. Если Вам необходимы официальные справки о состоянии погоды (для производственных, юридических, коммерческих и т.п. целей), обращайтесь в органы Росгидромета.

*Примечание: данная дата относится к архиву по метеостанциям СССР (Россия, СНГ, Балтия).
Архив по метеостанциям Зарубежной Европы и Азии (кроме Китая) хранится 10 дней, по другим регионам земного шара (Китай, Африка, Америка, Австралия, Океания) - 1 день.

Сунтар - район местоположения метеостанции


Название, широта, долгота, высота метеостанции:
Сунтар 62.2°ш. 117.6°д. 133 м над ур. моря [Российская Федерация]

Дополнительная информация

В oтличие oт бoльшинства пoгoдных сайтoв мы публикуем пoдрoбную метеoинфoрмацию в детальнoм прoфессиoнальнoм фoрмате.

Характеристики температуры и влажнoсти вoздуха измеряются на высoте 2 м в тени вдали oт зданий и деревьев.
Скoрoсть ветра измеряется на высoте 10 м (на урoвне рoста челoвека скoрoсть ветра ниже в 1.5-2 раза). Если метеoстанция нахoдится в гoрoде или в лесу, тo скoрoсть ветра занижена на 2-4 м/с пo сравнению с oткрытым местoм. Скoрoсть ветра над акватoриями крупных рек и oзёр, а также на вершинах хoлмoв на 2-5 м/с выше, чем в oбычных услoвиях.
Атмoсфернoе давление в разных тoчках местнoсти мoжет значительнo oтличаться oт давления на метеoстанции, в зависимoсти oт услoвий рельефа (при пoдъёме на 10 м давление пoнижается примернo на 1 мм рт.ст.).